Cosmos 2237 Rocket - Orbit

View from above orbital plane
View from above orbital plane
View from above satellite
View from above satellite

Ground track
Ground track

The orbit data is extracted from the following two-line orbital elements,

1 22566U 93016B   13168.79350431 -.00000082  00000-0 -17662-4 0  8123
2 22566 071.0076 252.0151 0010956 205.9915 154.0659 14.14779425 44701
Epoch (UTC): 17 June 2013 19:02:38
Eccentricity: 0.0010956
inclination: 71.0076°
perigee height: 835 km
apogee height: 851 km
right ascension of ascending node: 252.0151°
argument of perigee: 205.9915°
revolutions per day: 14.14779425
mean anomaly at epoch: 154.0659°
orbit number at epoch: 4470

The dashed part of the orbit path shows where the satellite is in the earth's shadow,  

Developed and maintained by Chris Peat, Heavens-Above GmbH. Please read the updated FAQ before sending e-mail. Imprint. DLR